Flag for Germany Weather past 2 weeks in Erfurt, Thuringia, Germany

Now
64 °F

Sunny.


Feels Like: 64 °F
Forecast: 47 / 65 °F
Wind: 16 mph from Southwest

Location: Erfurt-Bindersleben

Current Time: May 28, 2015 at 4:53:43 PM

Latest Report: May 28, 2015 at 4:20 PM


Visibility: 10 mi

Pressure: 29.92 "Hg

Humidity: 43%

Dew point: 41 °F

Location of ErfurtLocation

Historic Weather in Erfurt — Graph

°F

Erfurt temperature yesterday

Maximum temperature yesterday: 54 °F (at 2:20 PM)
Minimum temperature yesterday: 45 °F (at 3:50 AM)
Average temperature yesterday: 49 °F

Past Weeks' High & Low Weather Summary

 TemperatureHumidityPressure
High70 °F (May 18, 4:50 PM)100% (May 21, 6:20 AM)30.33 "Hg (May 21, 6:20 AM)
Low36 °F (May 22, 2:20 AM)27% (May 19, 2:50 PM)29.65 "Hg (May 19, 1:20 AM)
Average53 °F64%30.04 "Hg
* Reported May 13 3:20 PM — May 28 3:20 PM, Erfurt, Weather by CustomWeather, © 2015

Note: Actual official high and low records may vary slightly from our data, if they occured in-between our weather recording intervals... More about our weather records

Advertising

Erfurt weather history for previous 24 hours

 ConditionsComfort  
Time TempWeatherWind HumidityBarometerVisibility
3:20 PM
Thu, May 28
68 °FSunny.15 mph38%29.92 "Hg10 mi
2:50 PM66 °FSunny.15 mph46%29.95 "Hg10 mi
2:20 PM64 °FScattered clouds.15 mph46%29.95 "HgN/A
1:50 PM64 °FScattered clouds.13 mph46%29.95 "HgN/A
1:20 PM63 °FScattered clouds.15 mph49%29.98 "HgN/A
12:50 PM63 °FPartly sunny.13 mph52%29.98 "HgN/A
12:20 PM59 °FPartly sunny.13 mph51%29.98 "HgN/A
11:50 AM59 °FPartly sunny.15 mph51%30.01 "HgN/A
11:20 AM57 °FSunny.14 mph55%30.01 "Hg10 mi
10:50 AM59 °FSunny.16 mph51%30.01 "Hg10 mi
10:20 AM57 °FSunny.15 mph51%30.01 "Hg10 mi
9:50 AM57 °FSunny.12 mph51%30.04 "Hg10 mi
9:20 AM55 °FSunny.12 mph51%30.04 "Hg10 mi
8:50 AM52 °FSunny.9 mph62%30.04 "Hg10 mi
8:20 AM50 °FSunny.9 mph62%30.04 "Hg10 mi
7:50 AM50 °FSunny.8 mph67%30.04 "Hg10 mi
7:20 AM46 °FSunny.9 mph71%30.04 "Hg10 mi
6:50 AM45 °FSunny.9 mph76%30.04 "Hg10 mi
6:20 AM43 °FSunny.8 mph76%30.07 "Hg10 mi
5:20 AM41 °FClear.10 mph81%30.07 "Hg10 mi
4:50 AM41 °FClear.10 mph81%30.07 "Hg10 mi
4:20 AM41 °FClear.10 mph81%30.07 "Hg10 mi
3:50 AM41 °FClear.9 mph81%30.09 "Hg10 mi
3:20 AM39 °FClear.9 mph93%30.09 "Hg10 mi
2:50 AM39 °FClear.8 mph87%30.09 "Hg10 mi
2:20 AM39 °FClear.8 mph87%30.09 "Hg10 mi
1:50 AM39 °FClear.7 mph87%30.12 "Hg10 mi
1:20 AM41 °FClear.7 mph87%30.12 "Hg10 mi
12:50 AM41 °FClear.7 mph81%30.12 "Hg10 mi
12:20 AM43 °FClear.8 mph81%30.12 "Hg10 mi
11:50 PM
Wed, May 27
45 °FClear.8 mph76%30.12 "Hg10 mi
11:20 PM45 °FClear.8 mph76%30.15 "Hg10 mi
10:50 PM45 °FClear.7 mph76%30.15 "Hg10 mi
10:20 PM46 °FClear.8 mph76%30.15 "Hg10 mi
9:50 PM48 °FSunny.7 mph71%30.15 "Hg10 mi
9:20 PM50 °FSunny.5 mph71%30.15 "Hg10 mi
8:50 PM50 °FSunny.5 mph71%30.15 "Hg10 mi
8:20 PM50 °FSunny.3 mph67%30.15 "Hg10 mi
7:50 PM50 °FPartly sunny.3 mph71%30.18 "HgN/A
7:20 PM52 °FPartly sunny.3 mph67%30.18 "HgN/A
6:50 PM52 °FBroken clouds.5 mph62%30.18 "HgN/A
6:20 PM52 °FPartly sunny.5 mph62%30.18 "HgN/A
5:50 PM52 °FBroken clouds.7 mph58%30.18 "HgN/A
5:20 PM52 °FBroken clouds.10 mph58%30.18 "HgN/A
4:50 PM54 °FBroken clouds.10 mph54%30.18 "HgN/A
4:20 PM54 °FBroken clouds.9 mph54%30.18 "HgN/A
Weather by CustomWeather, © 2015

See weather overviewHow to use our weather pages